This demonstration page uses our WeatherBlox Daily Observations layout. Learn more.

Left ArrowRight Arrow

Hourly Observations for October 1, 2021

Temp ( °F °C ) Dew Point ( °F °C ) Humidity (%) Winds ( mph kmh ) Pressure ( in mb ) Visibility ( mi km ) Precip ( " mm )
12:15 am 00:15 Cloudy with Mist and Fog 58 14.2 57 13.7 97 97 NW 5 7 30.10 1019 4 6 N/A
12:35 am 00:35 Cloudy 58 14.2 57 13.7 97 97 NNW 5 7 30.10 1019 7 11 N/A
12:55 am 00:55 Cloudy with Mist and Fog 58 14.2 57 13.7 97 97 NNW 3 6 30.09 1019 5 8 N/A
1:15 am 01:15 Cloudy 57 14 56 13.5 97 97 NNW 6 9 30.10 1019 10 16 N/A
1:35 am 01:35 Cloudy 57 14.1 56 13.5 96 96 N N/A 30.10 1019 7 11 N/A
1:55 am 01:55 Cloudy 57 14.1 56 13.5 96 96 N N/A 30.09 1019 10 16 N/A
2:15 am 02:15 Cloudy 57 14.1 56 13.5 96 96 NNW 6 9 30.08 1019 7 11 N/A
2:35 am 02:35 Cloudy 57 14.1 56 13.3 95 95 NW 5 7 30.08 1019 7 11 N/A
2:55 am 02:55 Cloudy 57 14.1 56 13.5 96 96 WNW 6 9 30.07 1018 7 11 N/A
3:15 am 03:15 Cloudy 57 14.1 56 13.5 96 96 NW 6 9 30.07 1018 10 16 N/A
3:35 am 03:35 Cloudy 57 14.1 56 13.5 96 96 WNW 3 6 30.07 1018 10 16 N/A
3:55 am 03:55 Cloudy 58 14.2 56 13.5 96 96 W 3 6 30.06 1018 10 16 N/A
4:15 am 04:15 Cloudy 58 14.4 56 13.5 94 94 WNW 6 9 30.05 1018 10 16 N/A
4:35 am 04:35 Cloudy 58 14.5 56 13.2 92 92 WNW 3 6 30.05 1018 10 16 N/A
4:55 am 04:55 Cloudy 58 14.5 56 13.3 93 93 NW 3 6 30.05 1018 10 16 N/A
5:15 am 05:15 Cloudy 58 14.5 56 13.3 93 93 N N/A 30.06 1018 10 16 N/A
5:35 am 05:35 Cloudy 58 14.5 56 13.4 93 93 NW 3 6 30.06 1018 10 16 N/A
5:55 am 05:55 Cloudy 58 14.5 56 13.5 94 94 N N/A 30.07 1018 10 16 N/A
6:15 am 06:15 Cloudy 58 14.6 56 13.6 94 94 N N/A 30.07 1018 10 16 N/A
6:35 am 06:35 Cloudy 58 14.6 56 13.6 94 94 WNW 3 6 30.07 1018 10 16 N/A
6:55 am 06:55 Cloudy 58 14.7 57 13.7 94 94 WNW 6 9 30.07 1018 10 16 N/A
7:15 am 07:15 Cloudy 58 14.6 56 13.6 94 94 NW 7 11 30.06 1018 10 16 N/A
7:35 am 07:35 Cloudy 58 14.6 56 13.5 93 93 NW 5 7 30.06 1018 10 16 N/A
7:55 am 07:55 Cloudy 58 14.5 56 13.5 94 94 NW 5 7 30.06 1018 10 16 N/A
8:15 am 08:15 Cloudy 58 14.3 56 13.5 95 95 NW 5 7 30.07 1018 10 16 N/A
8:35 am 08:35 Cloudy 59 15 57 13.8 93 93 NW 5 7 30.07 1018 10 16 N/A
8:55 am 08:55 Cloudy 59 15.2 57 13.8 91 91 NW 5 7 30.08 1019 10 16 N/A
9:15 am 09:15 Cloudy 60 15.5 57 13.7 89 89 NW 6 9 30.07 1018 10 16 N/A
9:35 am 09:35 Cloudy 60 15.5 57 13.7 89 89 N 7 11 30.07 1018 10 16 N/A
9:55 am 09:55 Cloudy 60 15.5 57 13.8 90 90 N 8 13 30.07 1018 10 16 N/A
10:15 am 10:15 Cloudy 60 15.7 57 13.8 89 89 NNW 7 11 30.07 1018 10 16 N/A
10:35 am 10:35 Cloudy 61 16.1 57 13.8 86 86 N 5 7 30.07 1018 10 16 N/A
10:55 am 10:55 Cloudy 61 16.2 57 13.9 86 86 NNW 6 9 30.07 1018 10 16 N/A
11:15 am 11:15 Cloudy 62 16.7 57 13.8 83 83 NNW 5 7 30.06 1018 10 16 N/A
11:35 am 11:35 Cloudy 63 17.2 57 13.9 81 81 WNW 3 6 30.06 1018 10 16 N/A
11:55 am 11:55 Cloudy 63 17.3 57 13.9 81 81 NNW 3 6 30.06 1018 10 16 N/A
12:15 pm 12:15 Cloudy 64 17.5 57 14 80 80 WNW 6 9 30.06 1018 10 16 N/A
12:35 pm 12:35 Cloudy 64 17.7 57 13.8 78 78 NNW 5 7 30.05 1017 10 16 N/A
12:55 pm 12:55 Cloudy 65 18.2 57 14.1 77 77 NNW 7 11 30.03 1017 10 16 N/A
1:15 pm 13:15 Cloudy 65 18.4 57 13.9 75 75 NNW 9 15 30.03 1017 10 16 N/A
1:35 pm 13:35 Cloudy 66 18.7 57 14 74 74 NW 7 11 30.03 1017 10 16 N/A
1:55 pm 13:55 Cloudy 66 19 57 13.9 72 72 NW 6 9 30.03 1017 10 16 N/A
2:15 pm 14:15 Cloudy 66 19 57 14 73 73 N N/A 30.02 1016 10 16 N/A
2:35 pm 14:35 Cloudy 67 19.3 57 14 72 72 NNW 5 7 30.01 1016 10 16 N/A
2:55 pm 14:55 Cloudy 67 19.3 57 13.8 71 71 NW 3 6 30.00 1016 10 16 N/A
3:15 pm 15:15 Cloudy 67 19.5 57 14.1 71 71 N 5 7 30.00 1016 10 16 N/A
3:35 pm 15:35 Cloudy 67 19.4 57 13.9 71 71 NNW 5 7 30.00 1016 10 16 N/A
3:55 pm 15:55 Cloudy 67 19.5 57 13.8 70 70 N N/A 30.01 1016 10 16 N/A
4:15 pm 16:15 Cloudy 68 20 57 13.9 68 68 N N/A 30.01 1016 10 16 N/A
4:35 pm 16:35 Cloudy 68 20 57 13.8 68 68 N N/A 30.01 1016 10 16 N/A
4:55 pm 16:55 Cloudy 68 20 57 13.9 68 68 N N/A 30.01 1016 10 16 N/A
5:15 pm 17:15 Cloudy 67 19.5 58 14.3 72 72 NE 6 9 30.00 1016 10 16 N/A
5:35 pm 17:35 Cloudy 67 19.3 58 14.6 74 74 NNE 8 13 30.00 1016 10 16 N/A
5:55 pm 17:55 Cloudy 66 19.1 58 14.5 75 75 NNE 7 11 30.00 1016 10 16 N/A
6:15 pm 18:15 Cloudy 67 19.5 58 14.5 73 73 NNE 9 15 30.00 1016 10 16 N/A
6:35 pm 18:35 Partly Cloudy 66 18.7 58 14.5 77 77 NE 8 13 30.01 1016 10 16 N/A
6:55 pm 18:55 Sunny 65 18.1 58 14.2 78 78 ENE 3 6 30.01 1016 10 16 N/A
7:15 pm 19:15 Sunny 62 16.6 57 13.9 84 84 NNE 5 7 30.03 1017 10 16 N/A
7:35 pm 19:35 Clear 60 15.6 56 13.6 88 88 NNE 3 6 30.03 1017 10 16 N/A
7:55 pm 19:55 Clear 60 15.6 57 13.8 89 89 N N/A 30.03 1017 10 16 N/A
8:15 pm 20:15 Clear 60 15.7 57 13.9 89 89 N N/A 30.04 1017 10 16 N/A
8:35 pm 20:35 Clear 58 14.4 56 13.4 94 94 N N/A 30.05 1018 10 16 N/A
8:55 pm 20:55 Clear 58 14.6 56 13.6 94 94 N N/A 30.05 1018 10 16 N/A
9:15 pm 21:15 Clear 58 14.4 56 13.1 92 92 N N/A 30.05 1018 10 16 N/A
9:35 pm 21:35 Clear 55 12.7 53 11.8 94 94 N N/A 30.07 1018 10 16 N/A
9:55 pm 21:55 Clear 55 12.7 54 12 96 96 N N/A 30.07 1018 10 16 N/A
10:15 pm 22:15 Clear 56 13.5 55 12.7 95 95 N N/A 30.06 1018 10 16 N/A
10:35 pm 22:35 Clear 54 12.3 53 11.6 96 96 N N/A 30.07 1018 10 16 N/A
10:55 pm 22:55 Clear 55 12.5 54 12 97 97 N N/A 30.08 1019 10 16 N/A
11:15 pm 23:15 Clear 54 12 53 11.5 97 97 N N/A 30.09 1019 10 16 N/A
11:35 pm 23:35 Clear 55 12.6 54 12.1 97 97 N N/A 30.09 1019 10 16 N/A
11:55 pm 23:55 Clear 54 12.2 53 11.6 96 96 N N/A 30.09 1019 10 16 N/A

Powered by AerisWeather